FVN1058 SPJC-SCFA

Flight info

Callsign FVN1058
Flight time 1h 57m
Altitude 35000
Route SCO UL550 XONOG Q803 ENLUS
Aircraft A320/M-V/N

Departure

Time 2026-05-07 14:28
Airport Jorge Chávez International Airport (SPJC)

Arrival

Time 2026-05-07 16:25
Airport Andrés Sabella Gálvez International Airport (SCFA)
Time Latitude Longitude Altitude Speed Heading
2026-05-07 14:15 -12.02233 -77.11010 125 ft 0 kts 64°
2026-05-07 14:19 -12.02233 -77.11011 125 ft 1 kts 64°
2026-05-07 14:19 -12.02239 -77.11022 125 ft 2 kts 60°
2026-05-07 14:19 -12.02250 -77.11037 125 ft 3 kts 42°
2026-05-07 14:20 -12.02267 -77.11049 125 ft 3 kts 23°
2026-05-07 14:20 -12.02268 -77.11049 125 ft 3 kts 22°
2026-05-07 14:20 -12.02273 -77.11051 125 ft 3 kts 17°
2026-05-07 14:21 -12.02293 -77.11054 125 ft 3 kts 360°
2026-05-07 14:21 -12.02311 -77.11052 125 ft 0 kts 348°
2026-05-07 14:22 -12.02310 -77.11052 125 ft 0 kts 348°
2026-05-07 14:23 -12.02290 -77.11056 125 ft 7 kts 348°
2026-05-07 14:23 -12.02220 -77.11071 125 ft 14 kts 348°
2026-05-07 14:23 -12.02119 -77.11134 125 ft 20 kts 338°
2026-05-07 14:24 -12.01971 -77.11209 125 ft 26 kts 323°
2026-05-07 14:24 -12.01850 -77.11358 125 ft 30 kts 314°
2026-05-07 14:24 -12.01659 -77.11484 125 ft 36 kts 333°
2026-05-07 14:24 -12.01415 -77.11605 125 ft 42 kts 334°
2026-05-07 14:25 -12.01136 -77.11737 125 ft 47 kts 336°
2026-05-07 14:25 -12.00867 -77.11869 125 ft 28 kts 334°
2026-05-07 14:25 -12.00718 -77.11944 125 ft 17 kts 334°
2026-05-07 14:25 -12.00671 -77.12024 125 ft 11 kts 241°
2026-05-07 14:26 -12.00727 -77.12098 125 ft 13 kts 211°
2026-05-07 14:26 -12.00777 -77.12115 125 ft 9 kts 181°
2026-05-07 14:26 -12.00811 -77.12109 125 ft 2 kts 155°
2026-05-07 14:26 -12.00818 -77.12106 125 ft 2 kts 153°
2026-05-07 14:27 -12.00823 -77.12103 125 ft 0 kts 153°
2026-05-07 14:27 -12.00864 -77.12082 125 ft 29 kts 153°
2026-05-07 14:27 -12.01239 -77.11900 125 ft 89 kts 154°
2026-05-07 14:27 -12.01968 -77.11539 126 ft 141 kts 156°
2026-05-07 14:28 -12.02961 -77.11096 400 ft 154 kts 156°
2026-05-07 14:28 -12.03899 -77.10679 1087 ft 153 kts 156°
2026-05-07 14:28 -12.04590 -77.10372 1288 ft 175 kts 156°
2026-05-07 14:28 -12.05798 -77.09791 1681 ft 203 kts 154°
2026-05-07 14:29 -12.07041 -77.09078 2681 ft 205 kts 150°
2026-05-07 14:29 -12.08302 -77.08364 3692 ft 209 kts 152°
2026-05-07 14:29 -12.09629 -77.07701 4650 ft 214 kts 154°
2026-05-07 14:29 -12.10994 -77.07082 5433 ft 218 kts 159°
2026-05-07 14:30 -12.12533 -77.07005 6020 ft 229 kts 189°
2026-05-07 14:30 -12.13993 -77.07696 6565 ft 245 kts 210°
2026-05-07 14:30 -12.15469 -77.08746 6675 ft 269 kts 216°
2026-05-07 14:30 -12.16977 -77.09924 6671 ft 274 kts 218°
2026-05-07 14:31 -12.18480 -77.11125 6659 ft 274 kts 218°
2026-05-07 14:31 -12.20000 -77.12350 6661 ft 274 kts 218°
2026-05-07 14:31 -12.21475 -77.13546 6661 ft 274 kts 218°
2026-05-07 14:31 -12.22972 -77.14765 6660 ft 274 kts 218°
2026-05-07 14:32 -12.24464 -77.15985 6660 ft 274 kts 218°
2026-05-07 14:32 -12.25954 -77.17207 6659 ft 274 kts 218°
2026-05-07 14:32 -12.27443 -77.18432 6660 ft 274 kts 218°
2026-05-07 14:32 -12.29107 -77.19404 6896 ft 279 kts 201°
2026-05-07 14:33 -12.31030 -77.19676 7658 ft 280 kts 178°
2026-05-07 14:33 -12.32913 -77.19420 8646 ft 275 kts 168°
2026-05-07 14:33 -12.34789 -77.18960 9565 ft 274 kts 165°
2026-05-07 14:33 -12.36626 -77.18512 10349 ft 276 kts 166°
2026-05-07 14:34 -12.38522 -77.18096 11082 ft 280 kts 167°
2026-05-07 14:34 -12.40454 -77.17688 11716 ft 287 kts 167°
2026-05-07 14:34 -12.42439 -77.17265 12302 ft 295 kts 167°
2026-05-07 14:34 -12.44478 -77.16827 12859 ft 304 kts 167°
2026-05-07 14:35 -12.46574 -77.16376 13393 ft 312 kts 168°
2026-05-07 14:35 -12.48733 -77.15911 13906 ft 321 kts 168°
2026-05-07 14:35 -12.50951 -77.15435 14395 ft 330 kts 168°
2026-05-07 14:35 -12.53230 -77.14945 14861 ft 339 kts 168°
2026-05-07 14:36 -12.55571 -77.14442 15306 ft 347 kts 168°
2026-05-07 14:36 -12.57957 -77.13928 15798 ft 353 kts 168°
2026-05-07 14:36 -12.60375 -77.13408 16360 ft 357 kts 168°
2026-05-07 14:36 -12.62782 -77.12891 16935 ft 359 kts 168°
2026-05-07 14:37 -12.65235 -77.12363 17502 ft 361 kts 168°
2026-05-07 14:37 -12.70216 -77.11291 18555 ft 367 kts 167°
2026-05-07 14:37 -12.72730 -77.10750 19054 ft 370 kts 167°
2026-05-07 14:38 -12.75261 -77.10204 19538 ft 373 kts 167°
2026-05-07 14:38 -12.77812 -77.09655 20014 ft 376 kts 167°
2026-05-07 14:38 -12.80354 -77.09108 20474 ft 379 kts 167°
2026-05-07 14:38 -12.82944 -77.08550 20929 ft 382 kts 167°
2026-05-07 14:39 -12.85559 -77.07986 21363 ft 385 kts 167°
2026-05-07 14:39 -12.88187 -77.07420 21781 ft 388 kts 167°
2026-05-07 14:39 -12.90836 -77.06849 22191 ft 390 kts 167°
2026-05-07 14:39 -12.93507 -77.06273 22594 ft 393 kts 167°
2026-05-07 14:40 -12.96190 -77.05694 22989 ft 395 kts 167°
2026-05-07 14:40 -12.98895 -77.05111 23373 ft 398 kts 167°
2026-05-07 14:40 -13.01613 -77.04524 23743 ft 400 kts 167°
2026-05-07 14:40 -13.04335 -77.03856 24067 ft 403 kts 162°
2026-05-07 14:41 -13.06971 -77.02842 24402 ft 405 kts 155°
2026-05-07 14:41 -13.09379 -77.01333 24707 ft 407 kts 142°
2026-05-07 14:41 -13.11384 -76.99324 25037 ft 408 kts 129°
2026-05-07 14:41 -13.13061 -76.96971 25405 ft 409 kts 124°
2026-05-07 14:42 -13.14708 -76.94583 25748 ft 411 kts 124°
2026-05-07 14:42 -13.16457 -76.92241 26061 ft 413 kts 128°
2026-05-07 14:42 -13.18293 -76.89964 26367 ft 415 kts 128°
2026-05-07 14:42 -13.20150 -76.87680 26633 ft 418 kts 128°
2026-05-07 14:43 -13.22018 -76.85382 26868 ft 422 kts 128°
2026-05-07 14:43 -13.23901 -76.83061 27104 ft 425 kts 128°
2026-05-07 14:43 -13.25778 -76.80748 27345 ft 427 kts 128°
2026-05-07 14:43 -13.27686 -76.78395 27586 ft 430 kts 128°
2026-05-07 14:44 -13.29608 -76.76025 27819 ft 433 kts 128°
2026-05-07 14:44 -13.31540 -76.73642 28043 ft 435 kts 128°
2026-05-07 14:44 -13.33446 -76.71290 28255 ft 438 kts 128°
2026-05-07 14:44 -13.35441 -76.68827 28467 ft 441 kts 128°
2026-05-07 14:45 -13.37412 -76.66395 28665 ft 444 kts 128°
2026-05-07 14:45 -13.39391 -76.63951 28853 ft 447 kts 128°
2026-05-07 14:45 -13.41385 -76.61488 29033 ft 450 kts 128°
2026-05-07 14:45 -13.43397 -76.59002 29215 ft 453 kts 128°
2026-05-07 14:46 -13.45417 -76.56509 29395 ft 455 kts 128°
2026-05-07 14:46 -13.47448 -76.53995 29576 ft 458 kts 128°
2026-05-07 14:46 -13.49491 -76.51468 29755 ft 460 kts 128°
2026-05-07 14:46 -13.51513 -76.48968 29928 ft 463 kts 128°
2026-05-07 14:47 -13.53603 -76.46381 30102 ft 465 kts 128°
2026-05-07 14:47 -13.55653 -76.43844 30264 ft 467 kts 128°
2026-05-07 14:47 -13.57742 -76.41258 30425 ft 470 kts 128°
2026-05-07 14:47 -13.59836 -76.38664 30583 ft 472 kts 129°
2026-05-07 14:48 -13.61937 -76.36062 30739 ft 474 kts 129°
2026-05-07 14:48 -13.64047 -76.33447 30896 ft 476 kts 129°
2026-05-07 14:48 -13.66140 -76.30852 31051 ft 478 kts 129°
2026-05-07 14:48 -13.68266 -76.28216 31206 ft 480 kts 129°
2026-05-07 14:49 -13.70427 -76.25535 31361 ft 481 kts 129°
2026-05-07 14:49 -13.72551 -76.22915 31507 ft 483 kts 131°
2026-05-07 14:49 -13.74966 -76.20501 31631 ft 485 kts 139°
2026-05-07 14:49 -13.77584 -76.18313 31786 ft 485 kts 143°
2026-05-07 14:50 -13.80268 -76.16209 31952 ft 486 kts 144°
2026-05-07 14:50 -13.82967 -76.14088 32116 ft 487 kts 144°
2026-05-07 14:50 -13.85657 -76.11967 32266 ft 488 kts 144°
2026-05-07 14:50 -13.88365 -76.09830 32396 ft 489 kts 144°
2026-05-07 14:51 -13.91070 -76.07695 32529 ft 490 kts 144°
2026-05-07 14:51 -13.93773 -76.05561 32694 ft 490 kts 144°
2026-05-07 14:51 -13.96479 -76.03423 32877 ft 490 kts 144°
2026-05-07 14:51 -13.99185 -76.01285 33066 ft 490 kts 144°
2026-05-07 14:52 -14.01857 -75.99174 33253 ft 490 kts 144°
2026-05-07 14:52 -14.04564 -75.97035 33443 ft 489 kts 144°
2026-05-07 14:52 -14.07259 -75.94903 33633 ft 489 kts 144°
2026-05-07 14:52 -14.09961 -75.92766 33838 ft 488 kts 144°
2026-05-07 14:53 -14.12652 -75.90637 34057 ft 487 kts 144°
2026-05-07 14:53 -14.15335 -75.88513 34268 ft 486 kts 144°
2026-05-07 14:53 -14.18030 -75.86379 34467 ft 486 kts 144°
2026-05-07 14:53 -14.20710 -75.84256 34660 ft 486 kts 144°
2026-05-07 14:54 -14.23385 -75.82137 34855 ft 485 kts 144°
2026-05-07 14:54 -14.26062 -75.80016 35057 ft 485 kts 144°
2026-05-07 14:54 -14.28742 -75.77891 35160 ft 485 kts 144°
2026-05-07 14:54 -14.31382 -75.75798 35193 ft 484 kts 144°
2026-05-07 14:55 -14.36706 -75.71574 35191 ft 483 kts 144°
2026-05-07 14:55 -14.42030 -75.67347 35280 ft 481 kts 144°
2026-05-07 14:56 -14.47339 -75.63129 35390 ft 480 kts 144°
2026-05-07 14:56 -14.52635 -75.58920 35387 ft 480 kts 144°
2026-05-07 14:57 -14.57892 -75.54739 35356 ft 480 kts 144°
2026-05-07 14:57 -14.63190 -75.50523 35215 ft 484 kts 144°
2026-05-07 14:58 -14.65865 -75.48394 35104 ft 485 kts 144°
2026-05-07 14:58 -14.68541 -75.46262 35068 ft 486 kts 144°
2026-05-07 14:58 -14.73895 -75.41996 35047 ft 486 kts 144°
2026-05-07 14:59 -14.79259 -75.37719 35038 ft 487 kts 144°
2026-05-07 14:59 -14.84628 -75.33436 35038 ft 487 kts 144°
2026-05-07 15:00 -14.89993 -75.29152 35039 ft 487 kts 144°
2026-05-07 15:00 -14.95327 -75.24891 35036 ft 487 kts 144°
2026-05-07 15:01 -15.00707 -75.20590 35025 ft 488 kts 144°
2026-05-07 15:01 -15.06085 -75.16288 35026 ft 488 kts 144°
2026-05-07 15:02 -15.11425 -75.12013 35026 ft 488 kts 144°
2026-05-07 15:02 -15.16796 -75.07712 35023 ft 488 kts 144°
2026-05-07 15:03 -15.22172 -75.03403 35023 ft 488 kts 144°
2026-05-07 15:03 -15.27548 -74.99090 35022 ft 488 kts 143°
2026-05-07 15:04 -15.32898 -74.94797 35018 ft 488 kts 143°
2026-05-07 15:04 -15.38276 -74.90478 35018 ft 488 kts 143°
2026-05-07 15:05 -15.43648 -74.86161 35017 ft 488 kts 143°
2026-05-07 15:05 -15.48987 -74.81867 35019 ft 488 kts 143°
2026-05-07 15:06 -15.54354 -74.77548 35022 ft 488 kts 143°
2026-05-07 15:06 -15.59719 -74.73227 35030 ft 487 kts 143°
2026-05-07 15:07 -15.65081 -74.68907 35035 ft 487 kts 144°
2026-05-07 15:07 -15.70432 -74.64591 35044 ft 487 kts 144°
2026-05-07 15:08 -15.75748 -74.60302 35040 ft 487 kts 144°
2026-05-07 15:08 -15.81098 -74.55982 35038 ft 487 kts 143°
2026-05-07 15:09 -15.86443 -74.51663 35059 ft 486 kts 144°
2026-05-07 15:09 -15.91782 -74.47345 35065 ft 486 kts 144°
2026-05-07 15:10 -15.97120 -74.43026 35063 ft 486 kts 144°
2026-05-07 15:10 -16.02457 -74.38705 35068 ft 486 kts 144°
2026-05-07 15:11 -16.07762 -74.34406 35071 ft 485 kts 144°
2026-05-07 15:11 -16.13092 -74.30085 35067 ft 485 kts 144°
2026-05-07 15:12 -16.18423 -74.25759 35037 ft 486 kts 143°
2026-05-07 15:12 -16.23773 -74.21416 35011 ft 488 kts 143°
2026-05-07 15:13 -16.29132 -74.17062 35012 ft 488 kts 143°
2026-05-07 15:13 -16.33583 -74.13442 35019 ft 488 kts 143°
2026-05-07 15:14 -16.39809 -74.08376 35009 ft 488 kts 143°
2026-05-07 15:14 -16.44301 -74.04719 35007 ft 488 kts 143°
2026-05-07 15:15 -16.49634 -74.00373 35006 ft 488 kts 143°
2026-05-07 15:15 -16.54986 -73.96009 35006 ft 488 kts 143°
2026-05-07 15:16 -16.60340 -73.91639 35006 ft 488 kts 143°
2026-05-07 15:16 -16.65700 -73.87260 35006 ft 488 kts 143°
2026-05-07 15:17 -16.71015 -73.82915 35006 ft 488 kts 143°
2026-05-07 15:17 -16.76368 -73.78535 35002 ft 488 kts 143°
2026-05-07 15:18 -16.81714 -73.74158 35002 ft 488 kts 143°
2026-05-07 15:18 -16.87064 -73.69774 35003 ft 488 kts 143°
2026-05-07 15:19 -16.92384 -73.65412 34997 ft 488 kts 143°
2026-05-07 15:19 -16.97737 -73.61020 34995 ft 488 kts 143°
2026-05-07 15:20 -17.03079 -73.56633 34994 ft 488 kts 143°
2026-05-07 15:20 -17.08417 -73.52247 34993 ft 488 kts 143°
2026-05-07 15:21 -17.13720 -73.47885 34993 ft 488 kts 143°
2026-05-07 15:21 -17.19071 -73.43481 34993 ft 488 kts 143°
2026-05-07 15:22 -17.24409 -73.39088 35104 ft 486 kts 144°
2026-05-07 15:22 -17.29664 -73.34749 35197 ft 482 kts 145°
2026-05-07 15:23 -17.34923 -73.30410 35208 ft 481 kts 144°
2026-05-07 15:23 -17.40178 -73.26072 35209 ft 481 kts 144°
2026-05-07 15:24 -17.45446 -73.21720 35206 ft 481 kts 145°
2026-05-07 15:24 -17.50664 -73.17405 35205 ft 481 kts 144°
2026-05-07 15:25 -17.55922 -73.13056 35204 ft 481 kts 144°
2026-05-07 15:25 -17.61175 -73.08706 35186 ft 481 kts 145°
2026-05-07 15:26 -17.66408 -73.04370 35183 ft 481 kts 145°
2026-05-07 15:26 -17.71682 -72.99996 35185 ft 481 kts 145°
2026-05-07 15:27 -17.76938 -72.95634 35183 ft 481 kts 145°
2026-05-07 15:27 -17.82156 -72.91300 35176 ft 481 kts 145°
2026-05-07 15:28 -17.87410 -72.86933 35170 ft 481 kts 145°
2026-05-07 15:28 -17.92657 -72.82568 35165 ft 482 kts 145°
2026-05-07 15:29 -17.97914 -72.78192 35155 ft 482 kts 145°
2026-05-07 15:29 -18.03178 -72.73806 35158 ft 482 kts 144°
2026-05-07 15:30 -18.08432 -72.69425 35159 ft 482 kts 144°
2026-05-07 15:30 -18.13686 -72.65041 35147 ft 482 kts 145°
2026-05-07 15:31 -18.18919 -72.60671 35120 ft 484 kts 145°
2026-05-07 15:31 -18.24208 -72.56250 35124 ft 484 kts 145°
2026-05-07 15:32 -18.29483 -72.51838 35115 ft 485 kts 145°
2026-05-07 15:32 -18.34772 -72.47410 35090 ft 487 kts 145°
2026-05-07 15:33 -18.40080 -72.42967 35093 ft 487 kts 145°
2026-05-07 15:33 -18.45392 -72.38517 35074 ft 488 kts 145°
2026-05-07 15:34 -18.50677 -72.34087 35072 ft 488 kts 145°
2026-05-07 15:34 -18.56002 -72.29619 35072 ft 488 kts 145°
2026-05-07 15:35 -18.61326 -72.25148 35071 ft 488 kts 145°
2026-05-07 15:35 -18.66612 -72.20706 35072 ft 488 kts 145°
2026-05-07 15:36 -18.71928 -72.16234 35073 ft 488 kts 145°
2026-05-07 15:36 -18.77242 -72.11761 35074 ft 489 kts 144°
2026-05-07 15:37 -18.82555 -72.07285 35075 ft 489 kts 145°
2026-05-07 15:37 -18.87882 -72.02793 35075 ft 489 kts 144°
2026-05-07 15:38 -18.93193 -71.98311 35075 ft 489 kts 144°
2026-05-07 15:38 -18.98476 -71.93849 35075 ft 489 kts 144°
2026-05-07 15:39 -19.03792 -71.89355 35077 ft 489 kts 144°
2026-05-07 15:39 -19.09109 -71.84856 35077 ft 489 kts 144°
2026-05-07 15:40 -19.14427 -71.80354 35077 ft 489 kts 144°
2026-05-07 15:40 -19.19740 -71.75851 35078 ft 489 kts 144°
2026-05-07 15:41 -19.25023 -71.71370 35078 ft 489 kts 144°
2026-05-07 15:41 -19.30334 -71.66861 35073 ft 489 kts 144°
2026-05-07 15:42 -19.35650 -71.62344 35060 ft 489 kts 144°
2026-05-07 15:42 -19.40922 -71.57862 35058 ft 488 kts 144°
2026-05-07 15:43 -19.46228 -71.53345 35058 ft 489 kts 144°
2026-05-07 15:43 -19.51546 -71.48816 35058 ft 489 kts 144°
2026-05-07 15:44 -19.56844 -71.44298 35063 ft 489 kts 144°
2026-05-07 15:44 -19.62117 -71.39799 35062 ft 489 kts 144°
2026-05-07 15:45 -19.67418 -71.35271 35061 ft 489 kts 144°
2026-05-07 15:45 -19.72714 -71.30744 35061 ft 488 kts 144°
2026-05-07 15:46 -19.80646 -71.23956 35058 ft 488 kts 144°
2026-05-07 15:47 -19.85912 -71.19450 35066 ft 490 kts 146°
2026-05-07 15:47 -19.91264 -71.14849 35067 ft 492 kts 147°
2026-05-07 15:48 -19.96557 -71.10306 35068 ft 492 kts 146°
2026-05-07 15:48 -20.01883 -71.05732 35069 ft 492 kts 146°
2026-05-07 15:49 -20.07220 -71.01144 35066 ft 492 kts 147°
2026-05-07 15:49 -20.12549 -70.96555 35061 ft 492 kts 147°
2026-05-07 15:50 -20.17876 -70.91968 35062 ft 492 kts 147°
2026-05-07 15:50 -20.23205 -70.87374 35061 ft 492 kts 147°
2026-05-07 15:51 -20.28497 -70.82807 35060 ft 493 kts 147°
2026-05-07 15:51 -20.33823 -70.78207 35060 ft 492 kts 147°
2026-05-07 15:52 -20.39153 -70.73598 35057 ft 493 kts 147°
2026-05-07 15:52 -20.44479 -70.68982 35055 ft 493 kts 147°
2026-05-07 15:53 -20.49803 -70.64366 35055 ft 493 kts 147°
2026-05-07 15:53 -20.55132 -70.59742 35056 ft 493 kts 147°
2026-05-07 15:54 -20.60424 -70.55145 35054 ft 493 kts 147°
2026-05-07 15:54 -20.65751 -70.50517 35052 ft 493 kts 147°
2026-05-07 15:55 -20.71082 -70.45885 35052 ft 493 kts 147°
2026-05-07 15:55 -20.76403 -70.41256 35052 ft 493 kts 147°
2026-05-07 15:56 -20.81742 -70.36608 35052 ft 493 kts 147°
2026-05-07 15:56 -20.87031 -70.31998 35053 ft 493 kts 147°
2026-05-07 15:57 -20.92367 -70.27343 35052 ft 494 kts 147°
2026-05-07 15:57 -20.97976 -70.23208 35046 ft 489 kts 157°
2026-05-07 15:57 -21.01037 -70.21698 35022 ft 480 kts 168°
2026-05-07 15:58 -21.03155 -70.21065 35021 ft 475 kts 175°
2026-05-07 15:58 -21.06407 -70.20672 35023 ft 465 kts 186°
2026-05-07 15:58 -21.09611 -70.20857 35045 ft 458 kts 192°
2026-05-07 15:59 -21.15868 -70.21387 35050 ft 446 kts 193°
2026-05-07 15:59 -21.22064 -70.21834 35045 ft 447 kts 189°
2026-05-07 16:00 -21.28267 -70.21884 35053 ft 450 kts 188°
2026-05-07 16:00 -21.34551 -70.21905 35054 ft 451 kts 188°
2026-05-07 16:01 -21.40803 -70.21927 34105 ft 453 kts 188°
2026-05-07 16:01 -21.44039 -70.21945 32572 ft 474 kts 187°
2026-05-07 16:01 -21.47345 -70.21952 31926 ft 471 kts 187°
2026-05-07 16:01 -21.50545 -70.21960 31528 ft 461 kts 187°
2026-05-07 16:02 -21.53757 -70.21973 30793 ft 460 kts 187°
2026-05-07 16:02 -21.56946 -70.21985 30142 ft 457 kts 187°
2026-05-07 16:02 -21.60122 -70.21997 29449 ft 455 kts 186°
2026-05-07 16:02 -21.63272 -70.22009 28810 ft 451 kts 186°
2026-05-07 16:03 -21.66406 -70.22020 28227 ft 447 kts 186°
2026-05-07 16:03 -21.69506 -70.22031 27573 ft 444 kts 186°
2026-05-07 16:03 -21.72595 -70.22043 26818 ft 444 kts 186°
2026-05-07 16:03 -21.75680 -70.22054 26130 ft 442 kts 185°
2026-05-07 16:04 -21.78748 -70.22065 25507 ft 438 kts 185°
2026-05-07 16:04 -21.81789 -70.22076 24912 ft 434 kts 185°
2026-05-07 16:04 -21.84797 -70.22086 24325 ft 430 kts 185°
2026-05-07 16:04 -21.87783 -70.22102 23736 ft 426 kts 185°
2026-05-07 16:05 -21.90720 -70.22350 23081 ft 421 kts 191°
2026-05-07 16:05 -21.93612 -70.22774 22498 ft 417 kts 192°
2026-05-07 16:05 -21.96472 -70.23223 21955 ft 413 kts 192°
2026-05-07 16:05 -21.99306 -70.23670 21412 ft 410 kts 192°
2026-05-07 16:06 -22.02086 -70.24107 20867 ft 407 kts 192°
2026-05-07 16:06 -22.04882 -70.24547 20315 ft 404 kts 191°
2026-05-07 16:06 -22.07658 -70.24984 19769 ft 401 kts 191°
2026-05-07 16:06 -22.10419 -70.25419 19232 ft 398 kts 191°
2026-05-07 16:07 -22.13157 -70.25850 18713 ft 395 kts 191°
2026-05-07 16:07 -22.15867 -70.26277 18225 ft 391 kts 191°
2026-05-07 16:07 -22.18547 -70.26699 17750 ft 388 kts 190°
2026-05-07 16:07 -22.21207 -70.27119 17278 ft 384 kts 190°
2026-05-07 16:08 -22.23836 -70.27533 16805 ft 380 kts 190°
2026-05-07 16:08 -22.26413 -70.27940 16338 ft 377 kts 189°
2026-05-07 16:08 -22.29004 -70.28349 15865 ft 374 kts 189°
2026-05-07 16:08 -22.31576 -70.28755 15394 ft 372 kts 189°
2026-05-07 16:09 -22.34130 -70.29158 14923 ft 369 kts 189°
2026-05-07 16:09 -22.36668 -70.29559 14391 ft 368 kts 189°
2026-05-07 16:09 -22.39221 -70.29963 13637 ft 372 kts 188°
2026-05-07 16:09 -22.41784 -70.30368 12503 ft 371 kts 188°
2026-05-07 16:10 -22.44350 -70.30773 11163 ft 373 kts 188°
2026-05-07 16:10 -22.46914 -70.31179 9753 ft 379 kts 188°
2026-05-07 16:10 -22.49523 -70.31591 8656 ft 376 kts 188°
2026-05-07 16:10 -22.52052 -70.31992 8113 ft 358 kts 188°
2026-05-07 16:11 -22.54420 -70.32367 8004 ft 329 kts 188°
2026-05-07 16:11 -22.56562 -70.32707 7990 ft 294 kts 188°
2026-05-07 16:11 -22.58501 -70.33014 7991 ft 270 kts 187°
2026-05-07 16:11 -22.60293 -70.33297 7994 ft 251 kts 187°
2026-05-07 16:12 -22.61946 -70.33559 8273 ft 211 kts 187°
2026-05-07 16:12 -22.63272 -70.33771 9676 ft 187 kts 188°
2026-05-07 16:12 -22.64631 -70.33985 10195 ft 211 kts 188°
2026-05-07 16:12 -22.66193 -70.34230 10391 ft 239 kts 188°
2026-05-07 16:13 -22.67857 -70.34493 10353 ft 243 kts 188°
2026-05-07 16:13 -22.69545 -70.34762 10132 ft 248 kts 188°
2026-05-07 16:13 -22.71276 -70.35036 9846 ft 255 kts 188°
2026-05-07 16:13 -22.73040 -70.35316 9529 ft 263 kts 188°
2026-05-07 16:14 -22.74904 -70.35612 9175 ft 271 kts 188°
2026-05-07 16:14 -22.76774 -70.35909 8803 ft 280 kts 188°
2026-05-07 16:14 -22.78724 -70.36218 8489 ft 284 kts 188°
2026-05-07 16:14 -22.80688 -70.36531 8236 ft 286 kts 188°
2026-05-07 16:15 -22.82669 -70.36846 8067 ft 285 kts 188°
2026-05-07 16:15 -22.84614 -70.37155 8022 ft 280 kts 188°
2026-05-07 16:15 -22.86540 -70.37461 8009 ft 278 kts 188°
2026-05-07 16:15 -22.88451 -70.37762 7953 ft 278 kts 187°
2026-05-07 16:16 -22.90386 -70.38012 7746 ft 281 kts 185°
2026-05-07 16:16 -22.92341 -70.38230 7508 ft 283 kts 185°
2026-05-07 16:16 -22.94313 -70.38452 7260 ft 285 kts 185°
2026-05-07 16:16 -22.96267 -70.38679 7014 ft 287 kts 185°
2026-05-07 16:17 -22.98259 -70.38913 6762 ft 288 kts 186°
2026-05-07 16:17 -23.00256 -70.39147 6506 ft 289 kts 185°
2026-05-07 16:17 -23.02258 -70.39381 6251 ft 290 kts 185°
2026-05-07 16:17 -23.04261 -70.39615 6109 ft 287 kts 185°
2026-05-07 16:18 -23.06231 -70.39846 6067 ft 280 kts 185°
2026-05-07 16:18 -23.08145 -70.40079 6040 ft 274 kts 186°
2026-05-07 16:18 -23.10026 -70.40317 5936 ft 271 kts 186°
2026-05-07 16:18 -23.11900 -70.40544 5778 ft 271 kts 186°
2026-05-07 16:19 -23.13774 -70.40768 5607 ft 271 kts 185°
2026-05-07 16:19 -23.15652 -70.40992 5444 ft 271 kts 185°
2026-05-07 16:19 -23.17522 -70.41217 5290 ft 270 kts 185°
2026-05-07 16:19 -23.19388 -70.41445 5144 ft 269 kts 186°
2026-05-07 16:20 -23.21245 -70.41672 5005 ft 266 kts 186°
2026-05-07 16:20 -23.23034 -70.41891 4747 ft 257 kts 186°
2026-05-07 16:20 -23.24756 -70.42101 4163 ft 243 kts 186°
2026-05-07 16:20 -23.26431 -70.42305 3316 ft 242 kts 186°
2026-05-07 16:21 -23.28080 -70.42506 2834 ft 228 kts 186°
2026-05-07 16:21 -23.29562 -70.42745 2603 ft 208 kts 191°
2026-05-07 16:21 -23.30774 -70.43564 2111 ft 203 kts 220°
2026-05-07 16:21 -23.31753 -70.44523 2029 ft 180 kts 213°
2026-05-07 16:22 -23.32894 -70.44824 2063 ft 156 kts 189°
2026-05-07 16:22 -23.33880 -70.44885 2224 ft 129 kts 182°
2026-05-07 16:22 -23.34762 -70.44758 2221 ft 137 kts 169°
2026-05-07 16:22 -23.35720 -70.44434 2310 ft 156 kts 162°
2026-05-07 16:23 -23.36778 -70.44013 2120 ft 163 kts 160°
2026-05-07 16:23 -23.37869 -70.43726 1753 ft 157 kts 174°
2026-05-07 16:23 -23.38897 -70.43805 1692 ft 144 kts 187°
2026-05-07 16:23 -23.39876 -70.43922 1409 ft 141 kts 188°
2026-05-07 16:24 -23.40831 -70.44043 1305 ft 137 kts 187°
2026-05-07 16:24 -23.41802 -70.44163 1114 ft 143 kts 187°
2026-05-07 16:24 -23.42769 -70.44289 845 ft 137 kts 187°
2026-05-07 16:24 -23.43703 -70.44404 533 ft 132 kts 186°
2026-05-07 16:25 -23.44542 -70.44505 468 ft 112 kts 186°
2026-05-07 16:25 -23.45122 -70.44574 467 ft 52 kts 186°
2026-05-07 16:25 -23.45285 -70.44594 467 ft 1 kts 186°
2026-05-07 16:25 -23.45309 -70.44598 467 ft 6 kts 196°
2026-05-07 16:26 -23.45317 -70.44604 467 ft 3 kts 236°
2026-05-07 16:26 -23.45333 -70.44626 467 ft 2 kts 203°
2026-05-07 16:26 -23.45367 -70.44635 467 ft 3 kts 172°
2026-05-07 16:26 -23.45374 -70.44632 467 ft 1 kts 139°
2026-05-07 16:27 -23.45370 -70.44618 467 ft 1 kts 25°
2026-05-07 16:27 -23.45330 -70.44612 467 ft 13 kts
2026-05-07 16:27 -23.45196 -70.44596 467 ft 25 kts
2026-05-07 16:27 -23.44996 -70.44571 467 ft 33 kts
2026-05-07 16:28 -23.44743 -70.44540 467 ft 35 kts
2026-05-07 16:28 -23.44620 -70.44515 467 ft 14 kts 51°
2026-05-07 16:28 -23.44587 -70.44401 467 ft 19 kts 76°
2026-05-07 16:28 -23.44524 -70.44322 467 ft 15 kts 10°
2026-05-07 16:29 -23.44391 -70.44307 467 ft 24 kts
2026-05-07 16:29 -23.44214 -70.44250 467 ft 29 kts 22°
2026-05-07 16:29 -23.44038 -70.44175 467 ft 21 kts 21°
2026-05-07 16:29 -23.43964 -70.44114 467 ft 8 kts 86°
2026-05-07 16:30 -23.43968 -70.44097 467 ft 0 kts 109°
2026-05-07 16:30 -23.43969 -70.44097 467 ft 0 kts 109°